Regional Weather Roundup
Issued by NWS

Home | Current Version | Previous Version | Graphics & Text | Print | Product List | Glossary On
Versions: 1 2 3 4 5 6 7 8 9 10 11 12 13 14 15 16 17 18 19 20 21 22 23 24 25 26 27 28 29 30 31 32 33 34 35 36 37 38 39 40 41 42 43 44 45 46 47 48 49 50
957
ASUS43 KOAX 280302
RWRNE

WEATHER ROUNDUP FOR NEBRASKA
NATIONAL WEATHER SERVICE OMAHA NE
1000 PM CDT THU JUL 27 2017

NOTES: SATELLITE DATA IS BEING USED TO AUGMENT CLOUD COVER ABOVE
       12000 FEET.
       "FAIR" INDICATES FEW OR NO CLOUDS BELOW 12,000 FEET WITH NO
       SIGNIFICANT WEATHER AND/OR OBSTRUCTIONS TO VISIBILITY.


NEZ001>004-019>022-054>056-280400-
NEBRASKA PANHANDLE

CITY           SKY/WX    TMP DP  RH WIND       PRES   REMARKS
SCOTTSBLUFF    CLOUDY    70  63  78 E17G25    30.05R
ALLIANCE       CLOUDY    65  61  87 MISG      30.07S
GORDON         FAIR      68  54  60 E9        30.05F
KIMBALL        CLOUDY    67  61  80 SE15      30.10S
SIDNEY         CLOUDY    68  61  78 N15G25    30.13R THUNDER
$$

NEZ057>060-069>072-079>082-280400-
SOUTHWEST NEBRASKA

CITY           SKY/WX    TMP DP  RH WIND       PRES   REMARKS
NORTH PLATTE   CLEAR     69  58  67 SE8       30.07R
IMPERIAL       CLEAR     75  58  55 SE10      30.05S
LEXINGTON      CLEAR     72  63  73 SE7       30.07R
MCCOOK         CLOUDY    73  61  65 E8        30.05S
OGALLALA       CLOUDY    78  57  48 E9        30.07R
$$

NEZ005>010-023>029-035>040-094-280400-
NORTH CENTRAL NEBRASKA

CITY           SKY/WX    TMP DP  RH WIND       PRES   REMARKS
VALENTINE      CLOUDY    74  57  55 E13       30.05F
AINSWORTH      PTCLDY    69  62  79 SE5       30.08S
BROKEN BOW     CLEAR     69  61  75 E6        30.07R
O`NEILL        CLOUDY    73  64  75 E5        30.07S
ORD            CLOUDY    70  61  73 SE3       30.04F
THEDFORD       CLOUDY    74  58  58 E12       30.08R
$$

NEZ041-046>049-061>064-073>077-083>087-280400-
SOUTH CENTRAL NEBRASKA

CITY           SKY/WX    TMP DP  RH WIND       PRES   REMARKS
GRAND ISLAND   CLEAR     72  66  81 E6        30.07R
AURORA         CLEAR     68  67  95 E3        30.06R
HASTINGS       CLEAR     71  63  75 E7        30.08R
HEBRON         CLEAR     73  65  75 NE3       30.04R
HOLDREGE       CLEAR     67  64  87 E5        30.07R
KEARNEY        CLEAR     68  65  90 E6        30.07R
YORK           CLEAR     68  66  94 NE5       30.05S
$$

NEZ011>018-030>034-042>045-280400-
NORTHEAST NEBRASKA

CITY           SKY/WX    TMP DP  RH WIND       PRES   REMARKS
NORFOLK        PTCLDY    70  62  76 E3        30.04S
ALBION         CLOUDY    70  66  88 CALM      30.06S
BLAIR          CLEAR     74  64  70 N5        30.03R
COLUMBUS       CLEAR     69  67  93 CALM      30.04F
FREMONT        CLEAR     72  65  77 CALM      30.03S
TEKAMAH        CLEAR     70  66  87 NW6       30.02R
WAYNE          PTCLDY    69  69  99 CALM      30.05R
$$

NEZ050>053-065>068-078-088>093-280400-
SOUTHEAST NEBRASKA

CITY           SKY/WX    TMP DP  RH WIND       PRES   REMARKS
LINCOLN        CLEAR     71  65  81 N8        30.03R
OMAHA EPPLEY   PTCLDY    73  66  78 N5        30.01R
BEATRICE       CLEAR     71  66  85 N3        30.03R
FALLS CITY     PTCLDY    72  67  84 NW5       29.99R
NEBRASKA CITY  CLEAR     71  69  91 N5        30.01R
PLATTSMOUTH    CLEAR     73  64  71 CALM      30.01S
$$

NEZ044-045-051>053-067-280400-
OMAHA AREA

CITY           SKY/WX    TMP DP  RH WIND       PRES   REMARKS
OMAHA EPPLEY   PTCLDY    73  66  78 N5        30.01R
BLAIR          CLEAR     74  64  70 N5        30.03R
FREMONT        CLEAR     72  65  77 CALM      30.03S
MILLARD        CLEAR     78  65  65 CALM      30.01S
OFFUTT AFB     CLEAR     71  64  78 N3        30.00R
PLATTSMOUTH    CLEAR     73  64  71 CALM      30.01S
WAHOO          FAIR      69  66  92 N6        30.02S
$$




USA.gov is the U.S. government's official web portal to all federal, state and local government web resources and services.